PDT,Max TemperatureF,Mean TemperatureF,Min TemperatureF,Max Dew PointF,MeanDew PointF,Min DewpointF,Max Humidity, Mean Humidity, Min Humidity, Max Sea Level PressureIn, Mean Sea Level PressureIn, Min Sea Level PressureIn, Max VisibilityMiles, Mean VisibilityMiles, Min VisibilityMiles, Max Wind SpeedMPH, Mean Wind SpeedMPH, Max Gust SpeedMPH,PrecipitationIn, CloudCover, Events, WindDirDegrees
2013-3-1,62,54,47,49,48,46,93,79,64,30.44,30.39,30.32,10,10,10,12,4,16,0.00,7,,155
2013-3-2,57,48,37,48,44,34,100,83,66,30.32,30.22,30.16,10,10,2,16,3,24,0.04,7,Rain,244
2013-3-3,50,38,29,37,33,28,100,78,56,30.32,30.29,30.27,10,10,9,10,3,14,0.00,3,,295
2013-3-4,58,42,26,33,28,25,100,64,28,30.26,30.12,29.92,10,8,0,15,4,18,0.00,2,Fog,249
2013-3-5,45,38,31,41,38,28,100,88,76,29.92,29.80,29.67,10,8,4,7,2,10,0.40,8,Rain,227
2013-3-6,45,42,40,43,39,37,93,88,83,29.95,29.70,29.55,10,9,6,10,4,14,0.27,8,Rain,184
2013-3-7,55,46,34,38,36,32,100,72,43,30.06,30.03,29.97,10,10,10,8,2,10,0.00,2,,141
2013-3-8,59,44,29,37,33,28,100,68,36,30.22,30.08,30.04,10,8,0,12,4,15,0.00,2,Fog,332
2013-3-9,57,44,29,39,35,29,100,74,47,30.49,30.41,30.24,10,10,8,7,2,9,0.00,0,,272
2013-3-10,47,39,32,43,38,30,100,88,76,30.51,30.46,30.42,10,9,2,5,0,6,0.02,7,Rain,250
2013-3-11,53,48,43,48,44,41,100,86,71,30.44,30.34,30.24,10,8,2,8,1,10,T,8,,130
2013-3-12,62,52,43,48,45,42,100,78,55,30.23,30.19,30.15,10,4,0,12,3,16,0.00,7,Fog,208
2013-3-13,62,54,45,48,45,43,93,74,55,30.23,30.17,30.09,10,10,10,7,1,10,T,5,,137
2013-3-14,58,51,43,48,44,41,93,74,55,30.20,30.11,30.05,10,10,10,10,2,14,T,3,,188
2013-3-15,64,54,40,48,46,40,93,73,52,30.23,30.20,30.17,10,10,5,13,3,16,0.00,5,,46
2013-3-16,53,44,36,45,40,33,100,85,70,30.18,30.11,30.01,10,8,1,18,3,25,0.27,7,Rain,248
2013-3-17,50,42,34,36,34,32,89,73,56,30.30,30.25,30.14,10,10,7,17,4,22,0.03,6,Rain,237
2013-3-18,50,42,32,41,36,32,96,81,65,30.28,30.25,30.19,10,10,5,15,4,17,0.07,5,Rain,320
2013-3-19,50,41,32,43,38,30,96,76,56,30.16,29.90,29.66,10,8,2,12,3,15,0.68,6,Rain,190
2013-3-20,54,45,34,49,42,32,100,86,71,30.15,29.72,29.49,10,8,3,21,8,29,0.46,7,Rain,222
2013-3-21,50,40,33,37,34,32,92,76,60,30.31,30.25,30.17,10,10,6,20,4,29,0.08,6,Rain,268
2013-3-22,47,38,30,36,32,29,96,79,62,30.40,30.34,30.30,10,10,5,17,4,24,0.04,6,Rain,302
2013-3-23,50,39,30,36,31,25,92,66,39,30.40,30.37,30.29,10,10,7,7,2,9,0.00,3,,332
2013-3-24,56,44,32,34,31,28,89,64,38,30.29,30.19,30.10,10,10,10,8,2,12,0.00,5,,297
2013-3-25,63,48,35,47,35,30,93,64,34,30.09,30.00,29.91,10,10,10,8,1,12,0.05,4,Rain,243
2013-3-26,53,46,38,46,42,38,100,86,71,30.04,30.00,29.98,10,9,2,6,1,8,T,5,Rain,239
2013-3-27,63,52,43,49,45,42,100,74,48,29.99,29.94,29.90,10,7,1,16,2,21,0.18,7,Rain,293
2013-3-28,64,55,47,49,46,42,100,74,48,30.13,30.05,30.00,10,10,8,8,2,10,T,7,,298
2013-3-29,68,56,44,49,46,43,100,73,45,30.22,30.18,30.14,10,10,10,8,2,10,T,5,,318
2013-3-30,77,58,39,48,44,38,100,67,33,30.20,30.10,29.98,10,10,10,12,3,15,0.00,0,,351
2013-3-31,75,58,41,49,45,40,92,65,38,30.01,29.97,29.88,10,10,10,12,3,17,0.00,1,,321